FW0336 Weather Reports


time (UTC)temp
F
wind
direction
speed
knots
gust
knots
rain 1hr
in
rain 24hr
in
rain mn
in
humidity
%
barometer
mb
20260506014209 71 273 2.6 5.2 0.00 0.01 0.01 43 1007.6
20260506013707 72 306 2.6 5.2 0.00 0.01 0.01 43 1007.6
20260506013208 72 297 1.7 3.5 0.00 0.01 0.01 43 1007.6
20260506012706 72 294 0.9 5.2 0.00 0.01 0.01 43 1007.3
20260506012206 72 288 2.6 5.2 0.00 0.01 0.01 43 1007.3
20260506011709 71 273 1.7 3.5 0.00 0.01 0.01 44 1007.3
20260506011206 71 269 0.9 3.5 0.00 0.01 0.01 45 1007.2
20260506010707 71 309 0.9 6.1 0.00 0.01 0.01 45 1007.1
20260506010210 72 298 1.7 7.8 0.00 0.01 0.01 43 1007.0
20260506005701 72 304 0.9 3.5 0.00 0.01 0.01 44 1006.9
20260506005425 72 267 0.9 1.7 0.00 0.01 0.01 43 1006.8
20260506004701 73 260 0.0 1.7 0.00 0.01 0.01 43 1006.8
20260506004202 74 249 0.0 3.5 0.00 0.01 0.01 42 1006.6
20260506003704 74 265 0.9 6.1 0.00 0.01 0.01 42 1006.6
20260506003425 74 265 1.7 7.8 0.00 0.01 0.01 41 1006.7
20260506002711 74 261 3.5 7.8 0.00 0.01 0.01 41 1006.6
20260506002200 74 225 2.6 7.0 0.00 0.01 0.01 41 1006.6
20260506001932 74 277 1.7 7.0 0.00 0.01 0.01 41 1006.6
20260506001441 75 243 2.6 7.0 0.00 0.01 0.01 41 1006.6
20260506000656 75 247 1.7 7.8 0.00 0.01 0.01 41 1006.5
20260506000157 75 259 3.5 7.8 0.00 0.01 0.01 41 1006.5
20260505235652 76 240 3.5 9.6 0.00 0.01 0.01 40 1006.4
20260505235151 76 226 3.5 9.6 0.00 0.01 0.01 40 1006.3
20260505234651 76 219 4.3 9.6 0.00 0.01 0.01 40 1006.3
20260505234154 76 230 3.5 7.0 0.00 0.01 0.01 41 1006.1
20260505233650 76 166 2.6 7.0 0.00 0.01 0.01 41 1006.1
20260505233149 76 206 2.6 7.8 0.00 0.01 0.01 41 1006.0
20260505232650 76 175 3.5 7.8 0.00 0.01 0.01 41 1005.9
20260505232149 77 231 3.5 8.7 0.00 0.01 0.01 41 1005.9
20260505231650 77 258 3.5 12.2 0.00 0.01 0.01 41 1005.8
20260505231150 77 215 5.2 12.2 0.00 0.01 0.01 40 1005.8
20260505230651 77 221 4.3 9.6 0.00 0.01 0.01 41 1005.9
20260505230149 77 220 3.5 12.2 0.00 0.01 0.01 40 1005.9
20260505225652 78 236 5.2 16.5 0.00 0.01 0.01 40 1005.7
20260505225149 78 162 5.2 16.5 0.00 0.01 0.01 41 1005.9
20260505224646 78 250 5.2 10.4 0.00 0.01 0.01 40 1005.9
20260505224146 78 254 4.3 8.7 0.00 0.01 0.01 40 1005.9
20260505223647 78 207 3.5 10.4 0.00 0.01 0.01 40 1005.9
20260505223148 78 275 6.1 20.0 0.00 0.01 0.01 40 1006.0
20260505222915 78 142 7.8 20.0 0.00 0.01 0.01 39 1006.0
20260505222147 78 248 7.0 14.8 0.00 0.01 0.01 40 1006.0
20260505221647 78 261 6.1 15.6 0.00 0.01 0.01 39 1006.0
20260505221146 78 169 7.8 15.6 0.00 0.01 0.01 40 1006.0
20260505220645 78 178 7.8 15.6 0.00 0.01 0.01 39 1006.1
20260505220146 79 235 7.0 15.6 0.00 0.01 0.01 39 1006.1
20260505215919 79 215 7.8 14.8 0.00 0.01 0.01 38 1006.0
20260505215147 79 241 7.8 14.8 0.00 0.01 0.01 39 1006.0
20260505214645 80 253 9.6 14.8 0.00 0.01 0.01 38 1006.0
20260505214408 80 173 5.2 13.9 0.00 0.01 0.01 39 1005.9
20260505213647 80 252 8.7 13.9 0.00 0.01 0.01 38 1005.8
20260505213146 80 240 5.2 13.0 0.00 0.01 0.01 40 1005.7
20260505212911 80 265 7.8 12.2 0.00 0.01 0.01 39 1005.7
20260505212146 80 235 5.2 12.2 0.00 0.01 0.01 40 1005.7
20260505211919 79 196 5.2 12.2 0.00 0.01 0.01 40 1005.7
20260505211411 79 179 5.2 15.6 0.00 0.01 0.01 39 1005.7
20260505210643 80 244 7.8 16.5 0.00 0.01 0.01 39 1005.8
20260505210143 80 212 7.8 22.6 0.00 0.01 0.01 39 1005.8
20260505205911 79 286 7.0 22.6 0.00 0.01 0.01 40 1005.7
20260505205230 79 210 5.2 15.6 0.00 0.01 0.01 40 1005.7
20260505205221 79 215 7.0 20.0 0.00 0.01 0.01 40 1005.8
20260505205149 79 244 7.8 15.6 0.00 0.01 0.01 41 1005.7
20260505203636 80 220 9.6 21.7 0.00 0.01 0.01 40 1005.7
20260505203137 80 216 9.6 21.7 0.00 0.01 0.01 39 1005.9
20260505202636 80 279 5.2 18.2 0.00 0.01 0.01 40 1005.7
20260505202134 80 261 8.7 19.1 0.00 0.01 0.01 40 1005.9
20260505201631 80 255 6.1 19.1 0.00 0.01 0.01 40 1005.9
20260505201130 80 200 7.0 18.2 0.00 0.01 0.01 40 1005.9
20260505200631 80 171 7.8 13.0 0.00 0.01 0.01 40 1006.0
20260505200130 80 179 6.1 13.0 0.00 0.01 0.01 40 1006.0
20260505195629 80 273 7.8 14.8 0.00 0.01 0.01 39 1006.1
20260505195129 80 182 7.8 14.8 0.00 0.01 0.01 39 1006.0
20260505194627 80 193 6.1 13.9 0.00 0.01 0.01 39 1006.1
20260505194348 81 249 7.0 15.6 0.00 0.01 0.01 39 1006.1
20260505193625 81 196 6.1 15.6 0.00 0.01 0.01 38 1006.0
20260505193123 81 157 7.0 14.8 0.00 0.01 0.01 40 1006.2
20260505192622 80 254 7.8 16.5 0.00 0.01 0.01 39 1006.1
20260505192122 80 221 7.0 16.5 0.00 0.01 0.01 39 1006.3
20260505191623 80 254 3.5 15.6 0.00 0.01 0.01 40 1006.2
20260505191122 80 213 8.7 15.6 0.00 0.01 0.01 40 1006.5
20260505190621 79 209 6.1 18.2 0.00 0.01 0.01 39 1006.4
20260505190121 80 221 4.3 20.0 0.00 0.01 0.01 40 1006.4
20260505185624 79 241 11.3 20.0 0.00 0.01 0.01 39 1006.6
20260505185121 79 228 7.0 16.5 0.00 0.01 0.01 40 1006.7
20260505184619 80 212 7.8 18.2 0.00 0.01 0.01 39 1006.8
20260505184119 80 299 11.3 18.2 0.00 0.01 0.01 39 1006.8
20260505183619 80 177 5.2 14.8 0.00 0.01 0.01 40 1006.9
20260505183610 79 115 4.3 14.8 0.00 0.01 0.01 43 1007.0
20260505182619 79 164 8.7 14.8 0.00 0.01 0.01 41 1007.0
20260505182117 80 249 5.2 14.8 0.00 0.01 0.01 38 1006.9
20260505181615 80 227 5.2 14.8 0.00 0.01 0.01 40 1007.0
20260505181115 80 250 6.1 17.4 0.00 0.01 0.01 39 1007.0
20260505180613 80 257 7.0 17.4 0.00 0.01 0.01 38 1006.9
20260505180113 78 208 7.0 19.1 0.00 0.01 0.01 40 1007.2
20260505175835 80 158 10.4 19.1 0.00 0.01 0.01 39 1007.2
20260505175338 80 237 7.0 13.0 0.00 0.01 0.01 40 1007.0
20260505174612 79 236 6.1 15.6 0.00 0.01 0.01 40 1007.1
20260505174115 80 243 6.1 18.2 0.00 0.01 0.01 41 1007.3
20260505173839 79 254 7.8 18.2 0.00 0.01 0.01 38 1007.4
20260505173112 79 234 10.4 18.2 0.00 0.01 0.01 40 1007.3
20260505172612 79 253 9.6 18.2 0.00 0.01 0.01 40 1007.3
20260505172345 79 220 11.3 18.2 0.00 0.01 0.01 40 1007.3
20260505171612 80 161 7.0 16.5 0.00 0.01 0.01 39 1007.2
20260505171110 79 252 8.7 16.5 0.00 0.01 0.01 40 1007.3
20260505170611 79 259 6.1 14.8 0.00 0.01 0.01 41 1007.3
20260505170111 79 244 7.8 14.8 0.00 0.01 0.01 39 1007.7
20260505165613 78 259 7.8 20.0 0.00 0.01 0.01 42 1007.9
20260505165110 79 254 9.6 20.0 0.00 0.01 0.01 40 1007.9
20260505164610 79 257 9.6 18.2 0.00 0.01 0.01 41 1007.8
20260505164334 79 205 6.1 16.5 0.00 0.01 0.01 44 1007.9
20260505163609 78 254 11.3 16.5 0.00 0.01 0.01 41 1008.0
20260505163328 78 239 7.8 13.9 0.00 0.01 0.01 41 1008.1
20260505162611 79 261 4.3 18.2 0.00 0.01 0.01 42 1008.1
20260505162110 78 242 9.6 18.2 0.00 0.01 0.01 43 1008.1
20260505161847 78 232 7.8 15.6 0.00 0.01 0.01 43 1008.0
20260505161109 78 234 7.8 15.6 0.00 0.01 0.01 44 1008.1
20260505160610 77 180 7.0 15.6 0.00 0.01 0.01 45 1008.2
20260505160117 77 229 7.8 15.6 0.00 0.01 0.01 44 1008.2
20260505153103 76 209 7.0 12.2 0.00 0.01 0.01 47 1008.6
20260505152607 76 147 5.2 10.4 0.00 0.01 0.01 49 1008.6
20260505152106 75 207 5.2 11.3 0.00 0.01 0.01 50 1008.6
20260505151600 75 257 4.3 13.9 0.00 0.01 0.01 50 1008.5
20260505151058 74 246 7.8 13.9 0.00 0.01 0.01 52 1008.6
20260505150559 74 205 2.6 14.8 0.00 0.01 0.01 53 1008.6
20260505140545 70 254 2.6 8.7 0.00 0.01 0.01 59 1009.0
20260505130300 66 164 3.5 6.1 0.00 0.01 0.01 64 1009.4
20260505125024 65 211 3.5 7.0 0.00 0.01 0.01 66 1009.3
20260505124521 65 176 0.9 6.1 0.00 0.01 0.01 68 1009.3
20260505124017 64 260 0.9 6.1 0.00 0.01 0.01 68 1009.2
20260505123740 63 199 0.9 1.7 0.00 0.01 0.01 70 1009.3
20260505123013 62 229 0.0 2.6 0.00 0.01 0.01 69 1009.4
20260505122511 62 194 0.0 3.5 0.00 0.01 0.01 72 1009.3
20260505122011 61 199 0.9 3.5 0.00 0.01 0.01 72 1009.3
20260505121751 61 267 0.0 3.5 0.00 0.01 0.01 73 1009.4
20260505121007 61 267 0.0 3.5 0.00 0.01 0.01 71 1009.3
20260505120730 62 265 0.0 3.5 0.00 0.01 0.01 70 1009.2
20260505120006 62 295 1.7 3.5 0.00 0.01 0.01 72 1009.1
20260505115731 62 182 0.9 1.7 0.00 0.01 0.01 72 1009.2
20260505115235 61 5 0.0 1.7 0.00 0.01 0.01 77 1009.1
20260505114730 59 5 0.9 2.6 0.00 0.01 0.01 83 1009.0
20260505114005 58 121 0.0 2.6 0.00 0.01 0.01 86 1008.9
20260505113505 58 53 0.9 2.6 0.00 0.01 0.01 86 1008.9
20260505113002 57 27 0.0 2.6 0.00 0.01 0.01 87 1009.0
20260505112503 56 255 0.9 2.6 0.00 0.01 0.01 89 1009.1
20260505112003 55 264 1.7 2.6 0.00 0.01 0.01 91 1009.1
20260505111501 54 37 0.9 2.6 0.00 0.01 0.01 93 1009.0
20260505111004 52 53 0.9 2.6 0.00 0.01 0.01 94 1009.0
20260505110502 51 186 0.0 1.7 0.00 0.01 0.01 94 1008.9
20260505110239 51 136 0.0 1.7 0.00 0.01 0.01 94 1008.9
20260505101955 51 34 3.5 5.2 0.00 0.01 0.01 95 1008.4
20260505101457 49 30 0.0 2.6 0.00 0.01 0.01 95 1008.5
20260505100957 50 107 1.7 2.6 0.00 0.01 0.01 94 1008.6
20260505100455 50 62 0.9 1.7 0.00 0.01 0.01 95 1008.4
20260505095956 50 62 0.0 2.6 0.00 0.01 0.01 95 1008.3
20260505095459 50 69 0.0 2.6 0.00 0.01 0.01 94 1008.4
20260505094958 50 53 0.0 1.7 0.00 0.01 0.01 94 1008.3
20260505094457 50 164 0.0 3.5 0.00 0.01 0.01 94 1008.4
20260505093956 51 236 1.7 3.5 0.00 0.01 0.01 94 1008.3
20260505093455 51 32 0.0 0.0 0.00 0.01 0.01 94 1008.1
20260505092955 51 32 0.0 0.0 0.00 0.01 0.01 94 1008.2
20260505092457 51 32 0.0 0.0 0.00 0.01 0.01 94 1008.2
20260505091956 51 32 0.0 0.0 0.00 0.01 0.01 94 1008.4
20260505091455 51 32 0.0 0.0 0.00 0.01 0.01 94 1008.4
20260505090955 51 32 0.0 0.0 0.00 0.01 0.01 94 1008.3
20260505090500 52 32 0.0 0.0 0.00 0.01 0.01 94 1008.2
20260505085957 52 32 0.0 0.0 0.00 0.01 0.01 93 1008.2
20260505085455 52 32 0.0 0.0 0.00 0.01 0.01 93 1008.3
20260505084955 52 32 0.0 0.0 0.00 0.01 0.01 93 1008.2
20260505084455 52 32 0.0 0.0 0.00 0.01 0.01 93 1008.2
20260505083951 53 32 0.0 0.0 0.00 0.01 0.01 93 1008.2
20260505083451 53 32 0.0 0.0 0.00 0.01 0.01 93 1008.2
20260505083231 53 32 0.0 0.0 0.00 0.01 0.01 92 1008.1
20260505082721 53 32 0.0 0.0 0.00 0.01 0.01 92 1008.1
20260505082215 53 32 0.0 0.0 0.00 0.01 0.01 92 1008.2
20260505081453 53 32 0.0 0.0 0.00 0.01 0.01 92 1008.2
20260505080950 53 32 0.0 0.0 0.00 0.01 0.01 92 1008.2
20260505080452 54 32 0.0 0.0 0.00 0.01 0.01 92 1008.0
20260505075953 54 32 0.0 1.7 0.00 0.01 0.01 92 1008.1
20260505075447 55 32 0.0 1.7 0.00 0.01 0.01 92 1008.1
20260505074945 55 42 0.0 1.7 0.01 0.01 0.01 92 1008.1
20260505074450 55 126 0.0 4.3 0.01 0.01 0.01 92 1008.1
20260505073945 55 126 0.9 4.3 0.01 0.01 0.01 92 1008.2
20260505073442 55 23 1.7 2.6 0.01 0.01 0.01 92 1008.1
20260505072943 55 30 0.0 1.7 0.01 0.01 0.01 91 1008.1
20260505072441 56 30 0.0 1.7 0.01 0.01 0.01 91 1008.2
20260505071940 56 30 0.9 2.6 0.01 0.01 0.01 91 1008.0
20260505071709 56 30 0.0 2.6 0.01 0.01 0.01 90 1007.9
20260505070938 56 54 0.9 2.6 0.01 0.01 0.01 89 1008.0
20260505070431 56 0 0.9 3.5 0.01 0.01 0.01 89 1008.0
20260505065931 56 53 1.7 3.5 0.01 0.01 0.01 88 1008.0
20260505065432 56 26 0.0 2.6 0.01 0.01 0.01 87 1008.2
20260505064932 56 30 1.7 2.6 0.00 0.00 0.00 87 1008.2
20260505064433 56 72 0.0 1.7 0.00 0.00 0.00 87 1008.1
20260505063929 56 67 0.9 2.6 0.00 0.00 0.00 87 1008.1
20260505063427 56 40 1.7 2.6 0.00 0.00 0.00 88 1008.2
20260505063151 56 88 0.9 2.6 0.00 0.00 0.00 86 1008.1
20260505062426 57 22 0.0 2.6 0.00 0.00 0.00 85 1007.9
20260505061929 57 22 1.7 2.6 0.00 0.00 0.00 85 1007.9
20260505061426 57 23 0.9 2.6 0.00 0.00 0.00 86 1008.1
20260505060919 57 23 1.7 2.6 0.00 0.00 0.00 85 1008.0
20260505060649 57 12 0.9 2.6 0.00 0.00 0.00 83 1008.0
20260505060619 58 9 0.0 2.6 0.00 0.00 0.00 79 1008.1
20260505055410 59 30 0.9 2.6 0.00 0.00 0.00 73 1008.2
20260505055138 60 106 0.9 1.7 0.00 0.00 0.00 68 1008.1
20260505054408 60 187 0.9 3.5 0.00 0.00 0.00 68 1008.2
20260505053909 60 155 0.9 3.5 0.00 0.00 0.00 67 1008.2
20260505053407 61 278 0.0 1.7 0.00 0.00 0.00 65 1008.1
20260505052913 60 248 0.0 2.6 0.00 0.00 0.00 66 1008.2
20260505052357 59 17 0.9 2.6 0.00 0.00 0.00 68 1008.1
20260505051904 59 297 1.7 2.6 0.00 0.00 0.00 68 1008.2
20260505051357 58 39 0.0 2.6 0.00 0.00 0.00 70 1008.2
20260505050859 59 12 0.0 3.5 0.00 0.00 0.00 68 1008.2
20260505050350 58 18 1.7 3.5 0.00 0.00 0.00 68 1008.1
20260505041600 59 37 0.0 3.5 0.00 0.00 0.00 66 1007.9
20260505040822 59 37 0.9 3.5 0.00 0.00 0.00 65 1007.8
20260505040323 58 29 1.7 3.5 0.00 0.00 0.00 67 1007.9
20260505035819 58 11 0.9 3.5 0.00 0.00 0.00 68 1007.7
20260505035312 58 31 0.9 1.7 0.00 0.00 0.00 67 1007.8
20260505034809 58 5 0.0 2.6 0.00 0.00 0.00 67 1007.7
20260505034300 58 5 1.7 2.6 0.00 0.00 0.00 67 1007.8
20260505034031 58 83 0.9 2.6 0.00 0.00 0.00 66 1007.7
20260505033256 59 45 1.7 2.6 0.00 0.00 0.00 64 1007.7
20260505032745 59 307 0.9 3.5 0.00 0.00 0.00 64 1007.9
20260505032244 59 346 0.9 3.5 0.00 0.00 0.00 64 1007.9
20260505032010 58 317 0.0 2.6 0.00 0.00 0.00 65 1007.9
20260505031516 59 20 0.9 1.7 0.00 0.00 0.00 64 1007.9
20260505030733 59 24 0.9 1.7 0.00 0.00 0.00 64 1007.8
20260505030230 59 15 0.9 2.6 0.00 0.00 0.00 62 1007.7
20260505025729 60 13 1.7 2.6 0.00 0.00 0.00 62 1007.7
20260505025227 60 34 0.0 3.5 0.00 0.00 0.00 61 1007.7
20260505024729 60 123 1.7 3.5 0.00 0.00 0.00 62 1007.8
20260505024223 59 93 0.9 1.7 0.00 0.00 0.00 64 1007.9
20260505023712 60 94 0.0 1.7 0.00 0.00 0.00 60 1007.8
20260505023210 60 352 0.0 1.7 0.00 0.00 0.00 61 1007.9
20260505022711 61 352 0.0 2.6 0.00 0.00 0.00 60 1007.8
20260505022205 61 334 0.9 2.6 0.00 0.00 0.00 59 1007.8
20260505021700 61 5 0.0 2.6 0.00 0.00 0.00 59 1007.9
20260505021200 61 355 0.9 2.6 0.00 0.00 0.00 59 1007.9
20260505020658 61 355 0.9 2.6 0.00 0.00 0.00 59 1008.0
20260505020159 61 355 0.9 2.6 0.00 0.00 0.00 58 1008.1
20260505015922 62 327 0.9 1.7 0.00 0.00 0.00 58 1008.0
20260505015150 62 344 0.0 3.5 0.00 0.00 0.00 56 1007.9
20260505014650 63 202 0.0 3.5 0.00 0.00 0.00 54 1007.9
20260505014424 64 184 0.9 3.5 0.00 0.00 0.00 54 1007.9